www.pogodaiklimat.ru

Погода и климат >> Архив погоды >> Япония >> Тадоцу


ПОГОДА в Тадоцу

  • Прогноз погоды в Тадоцу
  • Монитор погоды в Тадоцу

АРХИВ ПОГОДЫ в Тадоцу

Время (UTC), дата Ветер
(напр.,м/с)
 
Видим.   Явления Облачность Т
(С)
Тd
(С)
f
(%)
Тe
(С)
Тes
(С)
Комфортность P
(гПа)
Po
(гПа)
Тmin
(С)
Tmax
(С)
R
(мм)
R24
(мм)
S
(см)
07 9.09 З 3 20 км н/о +32.0 +23.8 62 +43 +43 опасность
перегрева
1010.0 1009.4
08 9.09 З 3 20 км н/о +31.9 +23.4 61 +43 +43 опасность
перегрева
1010.2 1009.6
09 9.09 ЮЗ 3 20 км н/о +31.0 +23.7 65 +42 +42 опасность
перегрева
1010.4 1009.8
10 9.09 Ю 2 20 км н/о +30.7 +23.1 64 +41 +41 опасность
перегрева
1011.0 1010.4
11 9.09 Ю 1 20 км н/о +30.5 +23.2 65 +41 +41 опасность
перегрева
1011.9 1011.3
12 9.09 ЮВ 1 20 км н/о +29.7 +23.4 69 +40 +40 очень
душно
1012.4 1011.8 +34.5
16 9.09 ЮЗ 1 20 км н/о +28.5 +24.5 79 +40 +40 очень
душно
1012.5 1011.9
17 9.09 ЮЗ 3 20 км н/о +28.2 +25.2 84 +41 +41 опасность
перегрева
1012.6 1012.0
18 9.09 В 1 20 км н/о +28.0 +24.8 83 +40 +40 очень
душно
1012.8 1012.2
19 9.09 ЮЗ 1 20 км н/о +27.9 +24.8 83 +40 +40 очень
душно
1013.3 1012.7
21 9.09 ЮЗ 2 20 км н/о +27.5 +24.8 85 +39 +39 очень
душно
1014.2 1013.6
23 9.09 ЮЗ 2 20 км н/о +29.5 +25.0 77 +43 +43 опасность
перегрева
1015.0 1014.4
00 10.09 З 2 20 км н/о +30.6 +25.0 72 +44 +44 опасность
перегрева
1015.2 1014.6 +27.4
01 10.09 З 3 20 км н/о +31.1 +25.9 74 +46 +46 опасность
перегрева
1015.2 1014.6
02 10.09 З 3 20 км н/о +31.5 +25.6 71 +46 +46 опасность
перегрева
1014.9 1014.3
04 10.09 З 3 20 км н/о +32.8 +24.8 63 +46 +46 опасность
перегрева
1013.6 1013.0
05 10.09 З 2 20 км н/о +33.6 +25.0 61 +47 +47 опасность
перегрева
1013.0 1012.4
06 10.09 З 3 20 км н/о +33.2 +24.4 60 +46 +46 опасность
перегрева
1012.4 1011.8
07 10.09 З 3 20 км н/о +33.4 +23.4 56 +44 +44 опасность
перегрева
1012.4 1011.8
08 10.09 З 3 20 км н/о +32.7 +22.8 56 +43 +43 опасность
перегрева
1012.8 1012.2
09 10.09 З 3 20 км н/о +31.8 +23.6 62 +43 +43 опасность
перегрева
1012.9 1012.3
10 10.09 З 1 20 км н/о +31.3 +22.9 61 +41 +41 опасность
перегрева
1013.4 1012.8
11 10.09 ЮЗ 2 20 км н/о +30.8 +22.4 61 +40 +40 очень
душно
1013.9 1013.3
12 10.09 ЮЗ 1 20 км н/о +30.0 +23.2 67 +40 +40 очень
душно
1014.3 1013.7 +34.2
13 10.09 ЮВ 1 20 км н/о +29.3 +23.7 72 +40 +40 очень
душно
1014.4 1013.8
15 10.09 ЮВ 2 20 км н/о +27.8 +23.8 79 +38 +38 очень
душно
1014.6 1014.0
16 10.09 Ю 1 20 км н/о +28.2 +23.8 77 +39 +39 очень
душно
1014.5 1013.9
17 10.09 ЮЗ 2 20 км н/о +28.3 +24.3 79 +40 +40 очень
душно
1014.2 1013.6
18 10.09 Ю 2 20 км н/о +28.0 +24.4 81 +39 +39 очень
душно
1014.3 1013.7
19 10.09 ЮЗ 2 20 км н/о +28.0 +24.6 82 +40 +40 очень
душно
1014.5 1013.9
20 10.09 Ю 2 20 км н/о +27.6 +24.9 85 +39 +39 очень
душно
1014.4 1013.8
21 10.09 ЮЗ 2 20 км н/о +27.6 +24.7 84 +39 +39 очень
душно
1014.5 1013.9
22 10.09 ЮЗ 2 20 км н/о +28.4 +25.2 83 +41 +41 опасность
перегрева
1014.7 1014.1
23 10.09 З 3 20 км н/о +29.8 +25.3 77 +44 +44 опасность
перегрева
1015.0 1014.4
00 11.09 З 2 20 км н/о +30.3 +25.6 76 +45 +45 опасность
перегрева
1015.0 1014.4 +27.4
01 11.09 З 3 20 км н/о +31.5 +25.1 69 +45 +45 опасность
перегрева
1014.9 1014.3
02 11.09 З 2 20 км н/о +32.2 +24.8 65 +45 +45 опасность
перегрева
1014.4 1013.8
03 11.09 З 3 20 км н/о +32.9 +24.9 63 +46 +46 опасность
перегрева
1013.5 1012.9
04 11.09 З 3 19 км н/о +33.3 +25.0 62 +47 +47 опасность
перегрева
1012.7 1012.1
05 11.09 З 5 20 км н/о +33.1 +23.7 58 +44 +44 опасность
перегрева
1011.6 1011.0
06 11.09 З 4 19 км н/о +34.0 +24.0 56 +46 +46 опасность
перегрева
1011.2 1010.6
07 11.09 З 3 20 км н/о +32.0 +23.0 59 +42 +42 опасность
перегрева
1011.7 1011.1
08 11.09 З 4 20 км н/о +31.6 +24.5 66 +44 +44 опасность
перегрева
1011.9 1011.3
09 11.09 З 3 16 км н/о +29.9 +25.4 77 +44 +44 опасность
перегрева
1011.9 1011.3
10 11.09 СВ 3 9000 м слаб. дождь н/о +28.1 +24.5 81 +40 +40 очень
душно
1012.9 1012.3
11 11.09 В 2 19 км в посл. час дождь н/о +28.1 +24.5 81 +40 +40 очень
душно
1013.6 1013.0
12 11.09 С 3 7000 м слаб. дождь н/о +27.5 +24.6 84 +39 +39 очень
душно
1014.3 1013.7 +34.1 0.0
13 11.09 СВ 1 15 км в посл. час дождь н/о +27.1 +24.8 87 +39 +39 очень
душно
1014.1 1013.5
14 11.09 СВ 1 16 км н/о +27.2 +24.7 86 +39 +39 очень
душно
1014.2 1013.6
15 11.09 СВ 1 20 км {дождь} н/о +27.3 +23.6 80 +37 +37 очень
душно
1013.8 1013.2
16 11.09 С 2 20 км н/о +26.9 +23.6 82 +37 +37 очень
душно
1013.7 1013.1
17 11.09 С 3 20 км н/о +27.1 +22.9 78 +36 +36 очень
душно
1013.4 1012.8
18 11.09 С 3 20 км {дождь} н/о +26.7 +22.8 79 +35 +35 очень
душно
1013.4 1012.8 0.0
19 11.09 С 3 20 км н/о +26.5 +21.9 76 +34 +34 очень
душно
1013.5 1012.9
20 11.09 С 4 20 км н/о +26.1 +22.2 79 +34 +34 очень
душно
1013.8 1013.2
21 11.09 СВ 2 20 км н/о +25.8 +21.9 79 +33 +33 очень
душно
1014.2 1013.6
23 11.09 СВ 4 20 км н/о +26.3 +21.3 74 +33 +33 очень
душно
1014.6 1014.0
00 12.09 СВ 4 20 км н/о +28.1 +21.2 66 +35 +35 очень
душно
1014.8 1014.2 +25.8 0.0
01 12.09 СВ 4 20 км н/о +28.6 +20.6 62 +35 +35 очень
душно
1014.8 1014.2
02 12.09 С 4 20 км н/о +28.9 +19.8 58 +35 +35 очень
душно
1014.4 1013.8
03 12.09 СВ 3 20 км н/о +29.6 +19.9 56 +36 +36 очень
душно
1014.1 1013.5
04 12.09 С 4 20 км н/о +29.7 +19.7 55 +36 +36 очень
душно
1013.7 1013.1
05 12.09 СВ 3 20 км н/о +30.6 +19.3 51 +36 +36 очень
душно
1012.9 1012.3
06 12.09 С 4 20 км н/о +29.4 +20.3 58 +36 +36 очень
душно
1012.3 1011.7
07 12.09 С 4 20 км н/о +29.4 +20.0 57 +36 +36 очень
душно
1012.0 1011.4
08 12.09 СВ 6 20 км н/о +28.7 +18.5 54 +34 +34 очень
душно
1012.5 1011.9
09 12.09 СВ 5 20 км н/о +27.8 +17.7 54 +32 +32 душно 1012.8 1012.2
10 12.09 СВ 5 20 км н/о +26.5 +17.0 56 +30 +30 душно 1013.2 1012.6
12 12.09 СВ 4 20 км н/о +25.4 +16.6 58 +29 +29 душно 1013.7 1013.1 +31.3
13 12.09 СВ 3 20 км н/о +25.1 +16.8 60 +29 +29 душно 1013.8 1013.2
15 12.09 В 2 20 км н/о +24.5 +17.0 63 +28 +28 душно 1013.2 1012.6
16 12.09 В 2 20 км в посл. час дождь н/о +24.2 +17.5 66 +28 +28 душно 1012.6 1012.0
18 12.09 В 2 20 км {дождь} н/о +24.1 +17.6 67 +28 +28 душно 1012.2 1011.6 0.0
19 12.09 СВ 3 20 км н/о +23.6 +17.8 70 +28 +28 душно 1012.0 1011.4
20 12.09 СВ 3 20 км в посл. час дождь н/о +23.6 +17.8 70 +28 +28 душно 1012.4 1011.8
21 12.09 В 2 12 км слаб. дождь н/о +23.0 +18.6 76 +29 +29 очень
душно
1012.4 1011.8
22 12.09 СВ 1 20 км слаб. дождь н/о +22.2 +19.4 84 +28 +28 душно 1012.7 1012.1
23 12.09 СВ 1 20 км в посл. час дождь н/о +23.5 +19.5 78 +29 +29 душно 1013.2 1012.6
01 13.09 СВ 3 20 км в посл. час дождь н/о +25.4 +20.7 75 +32 +32 очень
душно
1012.6 1012.0
02 13.09 СВ 5 20 км н/о +26.9 +21.4 72 +34 +34 очень
душно
1011.9 1011.3
03 13.09 С 4 20 км {дождь} н/о +28.3 +21.6 67 +36 +36 очень
душно
1011.5 1010.9
04 13.09 СВ 5 20 км н/о +29.1 +21.1 62 +37 +37 очень
душно
1010.6 1010.0
05 13.09 СВ 6 20 км н/о +28.7 +21.7 66 +37 +37 очень
душно
1009.7 1009.1
06 13.09 СВ 6 20 км {дождь} н/о +28.6 +21.4 65 +36 +36 очень
душно
1009.7 1009.1 0.0
08 13.09 В 4 20 км н/о +27.4 +20.7 67 +34 +34 очень
душно
1010.4 1009.8
09 13.09 В 4 20 км н/о +26.7 +20.3 68 +33 +33 очень
душно
1010.6 1010.0
10 13.09 В 3 20 км н/о +26.2 +20.3 70 +32 +32 очень
душно
1011.0 1010.4
11 13.09 В 3 20 км н/о +26.1 +20.0 69 +32 +32 очень
душно
1011.8 1011.2
13 13.09 В 2 20 км н/о +25.8 +19.7 69 +31 +31 очень
душно
1012.2 1011.6
14 13.09 ЮВ 2 20 км н/о +25.5 +19.9 71 +31 +31 очень
душно
1012.0 1011.4
15 13.09 ЮВ 1 20 км н/о +25.4 +19.8 71 +31 +31 очень
душно
1011.6 1011.0
16 13.09 Ю 1 20 км н/о +24.5 +19.8 75 +30 +30 очень
душно
1011.4 1010.8
17 13.09 ЮВ 1 20 км н/о +24.1 +20.0 78 +30 +30 очень
душно
1011.3 1010.7
18 13.09 ЮВ 1 20 км н/о +24.1 +20.0 78 +30 +30 очень
душно
1011.2 1010.6
19 13.09 ЮВ 1 20 км н/о +23.6 +20.2 81 +29 +29 душно 1011.3 1010.7
21 13.09 ЮВ 2 20 км н/о +23.2 +20.0 82 +30 +30 очень
душно
1011.9 1011.3
00 14.09 В 3 20 км н/о +27.8 +20.4 64 +34 +34 очень
душно
1011.9 1011.3 +22.8
01 14.09 С 2 20 км н/о +28.4 +20.9 64 +36 +36 очень
душно
1011.8 1011.2
02 14.09 С 5 20 км н/о +29.3 +21.8 64 +38 +38 очень
душно
1011.3 1010.7
03 14.09 С 4 20 км н/о +29.3 +21.5 63 +37 +37 очень
душно
1010.8 1010.2
04 14.09 С 4 20 км н/о +29.9 +21.3 60 +38 +38 очень
душно
1010.2 1009.6
05 14.09 С 4 20 км н/о +29.4 +21.4 62 +37 +37 очень
душно
1009.6 1009.0
06 14.09 С 4 20 км н/о +30.2 +21.3 59 +38 +38 очень
душно
1009.1 1008.5
07 14.09 С 3 20 км н/о +29.7 +21.6 62 +38 +38 очень
душно
1009.2 1008.6
08 14.09 В 4 20 км н/о +30.0 +20.8 58 +37 +37 очень
душно
1009.2 1008.6
09 14.09 В 3 20 км н/о +29.0 +21.0 62 +36 +36 очень
душно
1009.4 1008.8
10 14.09 В 2 20 км н/о +28.0 +21.1 66 +35 +35 очень
душно
1009.7 1009.1
11 14.09 ЮВ 1 19 км н/о +27.4 +21.2 69 +35 +35 очень
душно
1010.1 1009.5
13 14.09 ЮВ 1 17 км н/о +26.0 +21.9 78 +33 +33 очень
душно
1010.2 1009.6
14 14.09 Ю 1 19 км н/о +25.9 +21.8 78 +33 +33 очень
душно
1010.1 1009.5
15 14.09 Ю 1 20 км н/о +25.2 +21.9 82 +32 +32 очень
душно
1010.0 1009.4
16 14.09 ЮВ 2 20 км н/о +24.5 +21.6 84 +31 +31 очень
душно
1010.0 1009.4
18 14.09 ЮВ 2 20 км н/о +23.5 +21.4 88 +30 +30 очень
душно
1009.6 1009.0
19 14.09 ЮВ 1 20 км н/о +23.5 +21.2 87 +30 +30 очень
душно
1009.6 1009.0
20 14.09 ЮВ 2 20 км н/о +23.3 +21.0 87 +31 +31 очень
душно
1009.5 1008.9
21 14.09 ЮВ 1 20 км н/о +22.9 +21.0 89 +30 +30 очень
душно
1009.4 1008.8
22 14.09 В 2 20 км н/о +24.2 +21.3 84 +31 +31 очень
душно
1009.6 1009.0
23 14.09 ЮВ 2 20 км н/о +25.9 +20.9 74 +32 +32 очень
душно
1009.8 1009.2
00 15.09 С 1 20 км н/о +28.0 +22.3 71 +37 +37 очень
душно
1009.8 1009.2 +22.8
01 15.09 С 4 20 км н/о +28.6 +22.1 68 +37 +37 очень
душно
1009.6 1009.0
02 15.09 С 4 20 км н/о +29.2 +21.7 64 +37 +37 очень
душно
1009.0 1008.4
03 15.09 С 4 20 км н/о +29.7 +22.2 64 +39 +39 очень
душно
1008.1 1007.5
04 15.09 С 4 20 км н/о +30.2 +22.1 62 +39 +39 очень
душно
1007.2 1006.6
05 15.09 С 4 20 км н/о +30.7 +20.3 54 +37 +37 очень
душно
1006.5 1005.9
06 15.09 С 3 20 км н/о +30.8 +20.1 53 +37 +37 очень
душно
1005.9 1005.3
07 15.09 СВ 3 20 км н/о +31.7 +21.3 54 +39 +39 очень
душно
1005.3 1004.7
08 15.09 СЗ 1 20 км н/о +30.9 +20.8 55 +38 +38 очень
душно
1005.2 1004.6
09 15.09 СЗ 3 20 км н/о +30.0 +21.4 60 +38 +38 очень
душно
1005.6 1005.0
10 15.09 СЗ 2 20 км н/о +29.1 +22.8 69 +39 +39 очень
душно
1005.9 1005.3
11 15.09 С 3 20 км н/о +29.0 +22.7 69 +38 +38 очень
душно
1006.5 1005.9
12 15.09 СВ 5 20 км н/о +28.2 +21.3 66 +36 +36 очень
душно
1006.7 1006.1 +32.6
13 15.09 СВ 4 20 км н/о +27.6 +20.7 66 +34 +34 очень
душно
1006.8 1006.2
14 15.09 СВ 3 20 км н/о +26.9 +20.7 69 +34 +34 очень
душно
1006.6 1006.0
16 15.09 СВ 2 20 км н/о +26.4 +20.3 69 +33 +33 очень
душно
1006.4 1005.8
17 15.09 СВ 3 20 км н/о +26.5 +19.9 67 +32 +32 очень
душно
1006.1 1005.5
18 15.09 СВ 2 20 км н/о +26.3 +20.2 69 +32 +32 очень
душно
1006.1 1005.5
19 15.09 С 3 20 км н/о +25.9 +19.8 69 +32 +32 очень
душно
1006.0 1005.4
21 15.09 С 2 19 км н/о +25.3 +20.3 74 +31 +31 очень
душно
1005.9 1005.3
22 15.09 С 2 20 км н/о +26.0 +19.2 66 +31 +31 очень
душно
1005.7 1005.1
23 15.09 СЗ 2 20 км н/о +26.8 +19.4 64 +32 +32 очень
душно
1006.0 1005.4
00 16.09 С 2 20 км н/о +27.6 +19.9 63 +34 +34 очень
душно
1006.3 1005.7 +25.2
03 16.09 З 2 20 км н/о +28.0 +20.1 62 +34 +34 очень
душно
1005.0 1004.4
04 16.09 З 3 20 км н/о +29.9 +20.7 58 +37 +37 очень
душно
1004.5 1003.9
05 16.09 З 3 20 км н/о +29.7 +20.8 59 +37 +37 очень
душно
1004.1 1003.5

 

Местоположение метеостанции Тадоцу (Япония): широта 34.28 долгота 133.75 высота над уровнем моря 5 м.

В архиве по умолчанию представлена погода в Тадоцу за последнюю неделю. Архивные данные за месяц целиком и за предыдущие месяцы, начиная с января 2011 года, Вы можете получить, выбрав интересующий диапазон дат из раскрывающегося списка и нажав кнопку "Ввод!".


*Определитесь, кто Вы:
робот инопланетянин человек

Внимание! Время в таблицах - всемирное. Для получения местного времени необходимо прибавить поправку, которая равна 9 ч.

Смотрите также архив погоды в соседних городах и на ближайших метеорологических станциях:

Погода в Такамацу (Япония) (28 км)
Погода в Окаяме (Япония) (46 км)
Погода в Фукуяме (Япония) (50 км)
Погода в Токусиме (Япония) (78 км)
Погода в Коти (Япония) (81 км)
Погода в Цуяме (Япония) (91 км)
Погода в Мацуяме (Япония) (101 км)
Погода в Химедзи (Япония) (103 км)
Погода в Сумото (Япония) (106 км)
Погода в Куре (Япония) (110 км)

Пояснения к столбцам:

Ветер - указаны скорость ветра в м/с - средняя за 10 мин, порывы в срок и между сроками (в фигурных скобках) и направление, откуда дует ветер: С - северный, СВ - северо-восточный, В - восточный, ЮВ - юго-восточный, Ю - южный, ЮЗ - юго-западный, З - западный, СЗ - северо-западный.
Видимость - горизонтальная дальность видимости в метрах или километрах. При видимости от 1 до 10 км при отсутствии осадков обычно наблюдается дымка, при ухудшении видимости до 1 км и менее - туман. В сухую погоду видимость может ухудшаться дымом, пылью или мглою.
Явления - указаны атмосферные явления, наблюдавшиеся в срок или в последний час перед сроком; фигурными скобками обозначены явления, наблюдавшиеся между сроками (за 1-3 часа до срока); квадратными скобками обозначены град или гололедные отложения с указанием их диаметра в мм.
Облачность - указаны через наклонную черту общая и нижняя облачность в баллах и высота нижней границы облаков в метрах; квадратными скобками обозначены формы облаков: Ci - перистые, Cs - перисто-слоистые, Cc - перисто-кучевые, Ac - высококучевые, As - высокослоистые, Sc - слоисто-кучевые, Ns - слоисто-дождевые, Cu - кучевые, Cb - кучево-дождевые. Подробнее классификацию облаков см. в Атласе облаков (PDF).
T - Температура воздуха - температура, измеренная на высоте 2 м над землей.
Td - Температура точки росы - температура, при понижении до которой содержащийся в воздухе водяной пар достигнет насыщения.
f - Относительная влажность воздуха - влажноcть воздуха, измеренная на высоте 2 м над землей.
Te - Эффективная температура - температура, которую ощущает одетый по сезону человек в тени. Характеристика душности погоды. При расчете учитывается влияние влажности воздуха и скорости ветра на теплоощущения человека.
Tes - Эффективная температура на солнце - температура, которую ощущает человек, с поправкой на солнечный нагрев. Характеристика знойности погоды. Зависит от высоты солнца над горизонтом, облачности и скорости ветра. Ночью, в пасмурную погоду, а также при ветре 12 м/с и более поправка равна нулю.
P - Атмосферное давление - приведенное к уровню моря атмосферное давление.
Po - Атмосферное давление - измеренное на уровне метеостанции атмосферное давление.
Tmin - Минимальная температура - минимум температуры воздуха на высоте 2 м над землей.
Tmax - Максимальная температура - максимум температуры воздуха на высоте 2 м над землей.
R - Количество осадков - Количество выпавших осадков за период времени, мм. При наведении курсора мыши на число - период времени, за который выпало указанное количество осадков.
R24 - Количество осадков - Количество выпавших осадков за 24 часа, мм.
S - Снежный покров - Высота снежного покрова, см. При наведении курсора мыши на число - состояние снежного покрова и степень покрытия местности в баллах.